Regional Weather Roundup
Issued by NWS

Home | Current Version | Previous Version | Graphics & Text | Print | Product List | Glossary On
Versions: 1 2 3 4 5 6 7 8 9 10 11 12 13 14 15 16 17 18 19 20 21 22 23 24 25 26 27 28 29 30 31 32 33 34 35 36 37 38 39 40 41 42 43 44 45 46 47 48 49 50
000
ASUS43 KFSD 270710
RWRSD

WEATHER ROUNDUP FOR SOUTH DAKOTA
NATIONAL WEATHER SERVICE SIOUX FALLS SD
200 AM CDT SAT AUG 27 2016

NOTE: "FAIR" INDICATES FEW OR NO CLOUDS BELOW 12,000 FEET WITH NO
SIGNIFICANT WEATHER AND/OR OBSTRUCTIONS TO VISIBILITY.


SDZ001>005-009-010-012>017-270800-
NORTHWEST AND NORTH CENTRAL SOUTH DAKOTA

CITY           SKY/WX    TMP DP  RH WIND       PRES   REMARKS
BUFFALO          N/A     52  48  86 S8        29.93F
FAITH            N/A     55  55 100 S10       29.97F
MOBRIDGE       CLOUDY    59  54  83 SE9       29.97F
$$

SDZ012>016-024>037-041>051-057-063-072>074-270800-
SOUTHWEST AND SOUTH CENTRAL SOUTH DAKOTA

CITY           SKY/WX    TMP DP  RH WIND       PRES   REMARKS
RAPID CTY ARPT LGT RAIN  53  52  96 E7        30.02F
PIERRE         PTCLDY    58  55  90 S9        29.98F
CUSTER         PTCLDY    50  47  89 NE5       30.10F
ELLSWORTH AFB  CLOUDY    54  54 100 S10       30.00
PHILIP         CLOUDY    60  57  89 SW7       29.98S
PINE RIDGE     LGT RAIN  56  55  97 SE18      30.01F
WINNER         FAIR      57  54  89 S8        30.01F
$$

SDZ004>011-016>023-039-040-270800-
NORTHEAST SOUTH DAKOTA

CITY           SKY/WX    TMP DP  RH WIND       PRES   REMARKS
ABERDEEN       CLOUDY    60  56  86 S12       30.01F
WATERTOWN      CLOUDY    62  58  86 S12       30.04F
BROOKINGS      CLOUDY    61  58  90 SE8       30.04F
SISSETON         N/A     61  59  93 S6        30.02F
$$

SDZ017-020-022-023-036>040-048>070-270800-
SOUTHEAST SOUTH DAKOTA

CITY           SKY/WX    TMP DP  RH WIND       PRES   REMARKS
SIOUX FALLS    RAIN      63  61  93 SE10      30.05S FOG
HURON          CLOUDY    61  58  90 SE6       30.02F
CHAMBERLAIN    CLOUDY    58  58  99 SE7       30.00F
MITCHELL       CLOUDY    64  60  87 S12       30.03F
YANKTON        CLOUDY    63  59  88 E3        30.02F
$$

ABBREVIATIONS USED IN REMARKS
   TC - TEMPERATURE IN CELSIUS
  WCI - WIND CHILL INDEX
   HX - HEAT INDEX
  VSB - VISIBILITY




USA.gov is the U.S. government's official web portal to all federal, state and local government web resources and services.